Time,TemperatureF,DewpointF,PressureIn,WindDirection,WindDirectionDegrees,WindSpeedMPH,WindSpeedGustMPH,Humidity,HourlyPrecipIn,Conditions,Clouds,dailyrainin,SoftwareType,DateUTC
2013-04-05 00:02:00,55.0,54.0,30.05,WSW,246,0.0,-999.0,95,-99.99,,,-99.99,,2013-04-05 07:02:00,
2013-04-05 00:12:00,55.0,54.0,30.05,WSW,246,0.0,-999.0,95,-99.99,,,-99.99,,2013-04-05 07:12:00,
2013-04-05 00:22:00,54.0,53.0,30.05,WSW,246,0.0,-999.0,95,-99.99,,,-99.99,,2013-04-05 07:22:00,
2013-04-05 00:32:00,54.0,53.0,30.05,WSW,246,0.0,-999.0,95,-99.99,,,-99.99,,2013-04-05 07:32:00,
2013-04-05 00:42:00,54.0,53.0,30.05,WSW,246,0.0,-999.0,95,-99.99,,,-99.99,,2013-04-05 07:42:00,
2013-04-05 00:52:00,54.0,53.0,30.04,WSW,246,0.0,-999.0,96,-99.99,,,-99.99,,2013-04-05 07:52:00,
2013-04-05 01:02:00,54.0,53.0,30.04,WSW,246,0.0,-999.0,96,-99.99,,,-99.99,,2013-04-05 08:02:00,
2013-04-05 01:12:00,54.0,53.0,30.04,WSW,246,0.0,-999.0,96,-99.99,,,-99.99,,2013-04-05 08:12:00,
2013-04-05 01:22:00,54.0,53.0,30.04,WSW,246,0.0,-999.0,96,-99.99,,,-99.99,,2013-04-05 08:22:00,
2013-04-05 01:32:00,54.0,53.0,30.04,WSW,246,0.0,-999.0,95,-99.99,,,-99.99,,2013-04-05 08:32:00,
2013-04-05 01:42:00,54.0,53.0,30.04,WSW,246,0.0,-999.0,95,-99.99,,,-99.99,,2013-04-05 08:42:00,
2013-04-05 01:52:00,54.0,53.0,30.04,WSW,246,0.0,-999.0,96,-99.99,,,-99.99,,2013-04-05 08:52:00,
2013-04-05 02:02:00,54.0,53.0,30.04,WSW,246,0.0,-999.0,96,-99.99,,,-99.99,,2013-04-05 09:02:00,
2013-04-05 02:11:00,54.0,53.0,30.04,WSW,246,0.0,-999.0,96,-99.99,,,-99.99,,2013-04-05 09:11:00,
2013-04-05 02:22:00,54.0,53.0,30.04,WSW,246,0.0,-999.0,96,-99.99,,,-99.99,,2013-04-05 09:22:00,
2013-04-05 02:32:00,54.0,53.0,30.03,WSW,246,0.0,-999.0,96,-99.99,,,-99.99,,2013-04-05 09:32:00,
2013-04-05 02:42:00,54.0,53.0,30.03,WSW,246,0.0,-999.0,96,-99.99,,,-99.99,,2013-04-05 09:42:00,
2013-04-05 02:52:00,54.0,53.0,30.03,WSW,246,0.0,-999.0,96,-99.99,,,-99.99,,2013-04-05 09:52:00,
2013-04-05 03:02:00,54.0,53.0,30.03,WSW,245,0.0,-999.0,96,-99.99,,,-99.99,,2013-04-05 10:02:00,
2013-04-05 03:12:00,54.0,53.0,30.03,WSW,245,0.0,-999.0,96,-99.99,,,-99.99,,2013-04-05 10:12:00,
2013-04-05 03:23:00,54.0,53.0,30.03,WSW,245,0.0,-999.0,96,-99.99,,,-99.99,,2013-04-05 10:23:00,
2013-04-05 03:32:00,54.0,53.0,30.03,WSW,245,0.0,-999.0,95,-99.99,,,-99.99,,2013-04-05 10:32:00,
2013-04-05 03:42:00,54.0,53.0,30.03,WSW,245,0.0,-999.0,95,-99.99,,,-99.99,,2013-04-05 10:42:00,
2013-04-05 03:52:00,54.0,53.0,30.02,East,83,0.0,-999.0,95,-99.99,,,-99.99,,2013-04-05 10:52:00,
2013-04-05 04:02:00,54.0,53.0,30.03,SE,125,0.0,-999.0,95,-99.99,,,-99.99,,2013-04-05 11:02:00,
2013-04-05 04:12:00,54.0,53.0,30.03,SE,125,0.0,-999.0,95,-99.99,,,-99.99,,2013-04-05 11:12:00,
2013-04-05 04:21:00,54.0,53.0,30.03,SE,125,0.0,-999.0,95,-99.99,,,-99.99,,2013-04-05 11:21:00,
2013-04-05 04:32:00,54.0,53.0,30.03,South,172,0.0,-999.0,95,-99.99,,,-99.99,,2013-04-05 11:32:00,
2013-04-05 04:42:00,54.0,53.0,30.03,South,172,0.0,-999.0,95,-99.99,,,-99.99,,2013-04-05 11:42:00,
2013-04-05 04:52:00,54.0,53.0,30.03,South,189,1.0,-999.0,95,-99.99,,,-99.99,,2013-04-05 11:52:00,
2013-04-05 05:02:00,54.0,53.0,30.03,SSW,208,0.0,-999.0,95,-99.99,,,-99.99,,2013-04-05 12:02:00,
2013-04-05 05:11:00,54.0,53.0,30.03,SSW,208,0.0,-999.0,95,-99.99,,,-99.99,,2013-04-05 12:11:00,
2013-04-05 05:22:00,54.0,53.0,30.03,SSW,205,0.0,-999.0,95,-99.99,,,-99.99,,2013-04-05 12:22:00,
2013-04-05 05:32:00,54.0,53.0,30.03,SSW,205,0.0,-999.0,95,-99.99,,,-99.99,,2013-04-05 12:32:00,
2013-04-05 05:42:00,54.0,53.0,30.03,SSW,205,0.0,-999.0,95,-99.99,,,-99.99,,2013-04-05 12:42:00,
2013-04-05 05:52:00,54.0,52.0,30.03,SSW,203,0.0,-999.0,94,-99.99,,,-99.99,,2013-04-05 12:52:00,
2013-04-05 06:02:00,54.0,52.0,30.03,SW,214,0.0,-999.0,94,-99.99,,,-99.99,,2013-04-05 13:02:00,
2013-04-05 06:11:00,54.0,52.0,30.03,SW,214,0.0,-999.0,94,-99.99,,,-99.99,,2013-04-05 13:11:00,
2013-04-05 06:21:00,54.0,52.0,30.03,SW,214,0.0,-999.0,94,-99.99,,,-99.99,,2013-04-05 13:21:00,
2013-04-05 06:32:00,54.0,52.0,30.03,SW,214,0.0,-999.0,94,-99.99,,,-99.99,,2013-04-05 13:32:00,
2013-04-05 06:42:00,54.0,52.0,30.03,SW,214,0.0,-999.0,94,-99.99,,,-99.99,,2013-04-05 13:42:00,
2013-04-05 06:52:00,54.0,52.0,30.03,SW,214,0.0,-999.0,94,-99.99,,,-99.99,,2013-04-05 13:52:00,
2013-04-05 07:02:00,54.0,52.0,30.03,SW,214,0.0,-999.0,94,-99.99,,,-99.99,,2013-04-05 14:02:00,
2013-04-05 07:12:00,54.0,52.0,30.03,SW,214,0.0,-999.0,94,-99.99,,,-99.99,,2013-04-05 14:12:00,
2013-04-05 07:22:00,54.0,52.0,30.03,SSW,206,0.0,-999.0,94,-99.99,,,-99.99,,2013-04-05 14:22:00,
2013-04-05 07:36:00,54.0,52.0,30.03,SSE,160,0.0,-999.0,94,-99.99,,,-99.99,,2013-04-05 14:36:00,
2013-04-05 07:42:00,54.0,52.0,30.03,SSE,160,0.0,-999.0,94,-99.99,,,-99.99,,2013-04-05 14:42:00,
2013-04-05 07:52:00,54.0,52.0,30.04,SSE,160,0.0,-999.0,94,-99.99,,,-99.99,,2013-04-05 14:52:00,
2013-04-05 08:02:00,55.0,53.0,30.05,SSE,160,0.0,-999.0,94,-99.99,,,-99.99,,2013-04-05 15:02:00,
2013-04-05 08:11:00,55.0,53.0,30.05,SSE,160,0.0,-999.0,94,-99.99,,,-99.99,,2013-04-05 15:11:00,
2013-04-05 08:22:00,55.0,53.0,30.05,SSE,160,0.0,-999.0,93,-99.99,,,-99.99,,2013-04-05 15:22:00,
2013-04-05 08:32:00,55.0,53.0,30.05,SSE,160,0.0,-999.0,93,-99.99,,,-99.99,,2013-04-05 15:32:00,
2013-04-05 08:42:00,55.0,53.0,30.05,SSE,160,0.0,-999.0,93,-99.99,,,-99.99,,2013-04-05 15:42:00,
2013-04-05 08:52:00,56.0,54.0,30.05,SSE,160,0.0,-999.0,92,-99.99,,,-99.99,,2013-04-05 15:52:00,
2013-04-05 09:02:00,56.0,53.0,30.06,SSE,160,0.0,-999.0,91,-99.99,,,-99.99,,2013-04-05 16:02:00,
2013-04-05 09:12:00,56.0,53.0,30.06,SSE,160,0.0,-999.0,91,-99.99,,,-99.99,,2013-04-05 16:12:00,
2013-04-05 09:22:00,58.0,54.0,30.06,SSE,161,0.0,-999.0,88,-99.99,,,-99.99,,2013-04-05 16:22:00,
2013-04-05 09:32:00,59.0,55.0,30.06,SSE,165,0.0,-999.0,87,-99.99,,,-99.99,,2013-04-05 16:32:00,
2013-04-05 09:42:00,59.0,55.0,30.06,SSE,165,0.0,-999.0,87,-99.99,,,-99.99,,2013-04-05 16:42:00,
2013-04-05 09:52:00,59.0,55.0,30.06,SSE,165,0.0,-999.0,87,-99.99,,,-99.99,,2013-04-05 16:52:00,
2013-04-05 10:02:00,61.0,56.0,30.06,SW,223,0.0,-999.0,83,-99.99,,,-99.99,,2013-04-05 17:02:00,
2013-04-05 10:12:00,61.0,56.0,30.06,SW,223,0.0,-999.0,83,-99.99,,,-99.99,,2013-04-05 17:12:00,
2013-04-05 10:22:00,61.0,55.0,30.06,WSW,254,0.0,-999.0,81,-99.99,,,-99.99,,2013-04-05 17:22:00,
2013-04-05 10:32:00,62.0,56.0,30.06,SW,226,0.0,-999.0,81,-99.99,,,-99.99,,2013-04-05 17:32:00,
2013-04-05 10:44:00,62.0,56.0,30.06,SW,226,0.0,-999.0,81,-99.99,,,-99.99,,2013-04-05 17:44:00,
2013-04-05 10:51:00,63.0,56.0,30.06,SW,219,0.0,-999.0,78,-99.99,,,-99.99,,2013-04-05 17:51:00,
2013-04-05 11:02:00,64.0,57.0,30.07,SW,216,1.0,-999.0,77,-99.99,,,-99.99,,2013-04-05 18:02:00,
2013-04-05 11:12:00,64.0,57.0,30.07,SW,216,1.0,-999.0,77,-99.99,,,-99.99,,2013-04-05 18:12:00,
2013-04-05 11:22:00,63.0,56.0,30.07,SW,227,1.0,-999.0,77,-99.99,,,-99.99,,2013-04-05 18:22:00,
2013-04-05 11:32:00,63.0,56.0,30.06,SW,222,0.0,-999.0,78,-99.99,,,-99.99,,2013-04-05 18:32:00,
2013-04-05 11:42:00,63.0,56.0,30.06,SW,222,0.0,-999.0,78,-99.99,,,-99.99,,2013-04-05 18:42:00,
2013-04-05 11:52:00,63.0,56.0,30.07,SW,223,1.0,-999.0,79,-99.99,,,-99.99,,2013-04-05 18:52:00,
2013-04-05 12:02:00,63.0,56.0,30.06,SW,223,0.0,-999.0,78,-99.99,,,-99.99,,2013-04-05 19:02:00,
2013-04-05 12:12:00,63.0,56.0,30.06,SW,223,0.0,-999.0,78,-99.99,,,-99.99,,2013-04-05 19:12:00,
2013-04-05 12:22:00,64.0,57.0,30.06,WSW,241,0.0,-999.0,77,-99.99,,,-99.99,,2013-04-05 19:22:00,
2013-04-05 12:32:00,64.0,57.0,30.06,WSW,241,0.0,-999.0,77,-99.99,,,-99.99,,2013-04-05 19:32:00,
2013-04-05 12:41:00,64.0,57.0,30.06,WSW,241,0.0,-999.0,77,-99.99,,,-99.99,,2013-04-05 19:41:00,
2013-04-05 12:51:00,64.0,57.0,30.06,WSW,241,0.0,-999.0,77,-99.99,,,-99.99,,2013-04-05 19:51:00,
2013-04-05 13:22:00,64.0,57.0,30.05,WSW,246,0.0,-999.0,77,-99.99,,,-99.99,,2013-04-05 20:22:00,
2013-04-05 13:52:00,68.0,58.0,30.03,West,269,0.0,-999.0,70,-99.99,,,-99.99,,2013-04-05 20:52:00,
2013-04-05 14:02:00,69.0,57.0,30.02,WSW,237,1.0,-999.0,66,-99.99,,,-99.99,,2013-04-05 21:02:00,
2013-04-05 14:12:00,69.0,57.0,30.02,WSW,237,1.0,-999.0,66,-99.99,,,-99.99,,2013-04-05 21:12:00,
2013-04-05 14:22:00,70.0,57.0,30.01,SW,223,0.0,-999.0,63,-99.99,,,-99.99,,2013-04-05 21:22:00,
2013-04-05 14:32:00,70.0,55.0,30.01,SW,232,2.0,-999.0,60,-99.99,,,-99.99,,2013-04-05 21:32:00,
2013-04-05 14:42:00,70.0,55.0,30.01,SW,232,2.0,-999.0,60,-99.99,,,-99.99,,2013-04-05 21:42:00,
2013-04-05 14:52:00,71.0,56.0,30.01,SW,223,1.0,-999.0,60,-99.99,,,-99.99,,2013-04-05 21:52:00,
2013-04-05 15:02:00,71.0,56.0,30.01,West,261,1.0,-999.0,60,-99.99,,,-99.99,,2013-04-05 22:02:00,
2013-04-05 15:12:00,71.0,56.0,30.01,West,261,1.0,-999.0,60,-99.99,,,-99.99,,2013-04-05 22:12:00,
2013-04-05 15:22:00,70.0,56.0,30.01,SW,234,2.0,-999.0,61,-99.99,,,-99.99,,2013-04-05 22:22:00,
2013-04-05 15:32:00,69.0,55.0,30.01,WSW,237,1.0,-999.0,60,-99.99,,,-99.99,,2013-04-05 22:32:00,
2013-04-05 15:42:00,69.0,55.0,30.01,WSW,237,1.0,-999.0,60,-99.99,,,-99.99,,2013-04-05 22:42:00,
2013-04-05 15:52:00,70.0,55.0,30.00,WNW,298,1.0,-999.0,60,-99.99,,,-99.99,,2013-04-05 22:52:00,
2013-04-05 16:02:00,69.0,55.0,30.00,WSW,240,2.0,-999.0,62,-99.99,,,-99.99,,2013-04-05 23:02:00,
2013-04-05 16:12:00,69.0,55.0,30.00,WSW,240,2.0,-999.0,62,-99.99,,,-99.99,,2013-04-05 23:12:00,
2013-04-05 16:22:00,69.0,55.0,29.98,WSW,242,1.0,-999.0,61,-99.99,,,-99.99,,2013-04-05 23:22:00,
2013-04-05 16:32:00,69.0,56.0,29.97,WSW,245,0.0,-999.0,63,-99.99,,,-99.99,,2013-04-05 23:32:00,
2013-04-05 16:42:00,69.0,56.0,29.97,WSW,245,0.0,-999.0,63,-99.99,,,-99.99,,2013-04-05 23:42:00,
2013-04-05 16:52:00,67.0,56.0,29.97,WSW,246,0.0,-999.0,67,-99.99,,,-99.99,,2013-04-05 23:52:00,
2013-04-05 17:02:00,65.0,55.0,29.97,SW,221,1.0,-999.0,69,-99.99,,,-99.99,,2013-04-06 00:02:00,
2013-04-05 17:12:00,65.0,55.0,29.97,SW,221,1.0,-999.0,69,-99.99,,,-99.99,,2013-04-06 00:12:00,
2013-04-05 17:22:00,64.0,55.0,29.97,SW,226,0.0,-999.0,72,-99.99,,,-99.99,,2013-04-06 00:22:00,
2013-04-05 17:32:00,63.0,55.0,29.97,SW,221,1.0,-999.0,74,-99.99,,,-99.99,,2013-04-06 00:32:00,
2013-04-05 17:42:00,63.0,55.0,29.97,SW,221,1.0,-999.0,74,-99.99,,,-99.99,,2013-04-06 00:42:00,
2013-04-05 17:52:00,62.0,54.0,29.97,SW,229,0.0,-999.0,75,-99.99,,,-99.99,,2013-04-06 00:52:00,
2013-04-05 18:02:00,62.0,54.0,29.97,SW,227,0.0,-999.0,76,-99.99,,,-99.99,,2013-04-06 01:02:00,
2013-04-05 18:12:00,62.0,54.0,29.97,SW,235,0.0,-999.0,76,-99.99,,,-99.99,,2013-04-06 01:12:00,
2013-04-05 18:22:00,62.0,54.0,29.97,SW,235,0.0,-999.0,76,-99.99,,,-99.99,,2013-04-06 01:22:00,
2013-04-05 18:32:00,61.0,54.0,29.97,SW,234,0.0,-999.0,77,-99.99,,,-99.99,,2013-04-06 01:32:00,
2013-04-05 18:42:00,61.0,54.0,29.97,SW,234,0.0,-999.0,77,-99.99,,,-99.99,,2013-04-06 01:42:00,
2013-04-05 18:52:00,60.0,53.0,29.97,SW,234,0.0,-999.0,78,-99.99,,,-99.99,,2013-04-06 01:52:00,
2013-04-05 19:02:00,59.0,52.0,29.97,SW,234,0.0,-999.0,79,-99.99,,,-99.99,,2013-04-06 02:02:00,
2013-04-05 19:11:00,59.0,52.0,29.97,SW,234,0.0,-999.0,79,-99.99,,,-99.99,,2013-04-06 02:11:00,
2013-04-05 19:22:00,58.0,52.0,29.98,SW,235,0.0,-999.0,81,-99.99,,,-99.99,,2013-04-06 02:22:00,
2013-04-05 19:32:00,57.0,52.0,29.97,SW,235,0.0,-999.0,83,-99.99,,,-99.99,,2013-04-06 02:32:00,
2013-04-05 19:42:00,57.0,52.0,29.97,SW,235,0.0,-999.0,83,-99.99,,,-99.99,,2013-04-06 02:42:00,
2013-04-05 19:52:00,56.0,51.0,29.96,SW,235,0.0,-999.0,84,-99.99,,,-99.99,,2013-04-06 02:52:00,
2013-04-05 20:02:00,55.0,51.0,29.97,SW,235,0.0,-999.0,86,-99.99,,,-99.99,,2013-04-06 03:02:00,
2013-04-05 20:11:00,55.0,51.0,29.97,SW,235,0.0,-999.0,86,-99.99,,,-99.99,,2013-04-06 03:11:00,
2013-04-05 20:21:00,55.0,51.0,29.98,SW,234,0.0,-999.0,87,-99.99,,,-99.99,,2013-04-06 03:21:00,
2013-04-05 20:33:00,55.0,52.0,29.98,SW,236,0.0,-999.0,88,-99.99,,,-99.99,,2013-04-06 03:33:00,
2013-04-05 20:42:00,55.0,52.0,29.98,SW,236,0.0,-999.0,88,-99.99,,,-99.99,,2013-04-06 03:42:00,
2013-04-05 20:53:00,54.0,51.0,29.98,SW,235,0.0,-999.0,88,-99.99,,,-99.99,,2013-04-06 03:53:00,
2013-04-05 21:03:00,54.0,51.0,29.99,SW,235,0.0,-999.0,88,-99.99,,,-99.99,,2013-04-06 04:03:00,
2013-04-05 21:13:00,54.0,51.0,29.99,SW,235,0.0,-999.0,88,-99.99,,,-99.99,,2013-04-06 04:13:00,
2013-04-05 21:22:00,54.0,51.0,29.99,SW,235,0.0,-999.0,88,-99.99,,,-99.99,,2013-04-06 04:22:00,
2013-04-05 21:32:00,54.0,51.0,29.99,SW,234,0.0,-999.0,89,-99.99,,,-99.99,,2013-04-06 04:32:00,
2013-04-05 21:42:00,54.0,51.0,29.99,SW,234,0.0,-999.0,89,-99.99,,,-99.99,,2013-04-06 04:42:00,
2013-04-05 21:53:00,54.0,51.0,30.00,SW,236,0.0,-999.0,89,-99.99,,,-99.99,,2013-04-06 04:53:00,
2013-04-05 22:02:00,54.0,51.0,30.01,SW,234,0.0,-999.0,89,-99.99,,,-99.99,,2013-04-06 05:02:00,
2013-04-05 22:12:00,54.0,51.0,30.01,SW,234,0.0,-999.0,89,-99.99,,,-99.99,,2013-04-06 05:12:00,
2013-04-05 22:22:00,54.0,51.0,30.01,SW,236,0.0,-999.0,90,-99.99,,,-99.99,,2013-04-06 05:22:00,
2013-04-05 22:32:00,54.0,51.0,30.01,SW,235,0.0,-999.0,90,-99.99,,,-99.99,,2013-04-06 05:32:00,
2013-04-05 22:42:00,54.0,51.0,30.01,SW,235,0.0,-999.0,90,-99.99,,,-99.99,,2013-04-06 05:42:00,
2013-04-05 22:51:00,54.0,51.0,30.01,SW,235,0.0,-999.0,90,-99.99,,,-99.99,,2013-04-06 05:51:00,
2013-04-05 23:02:00,54.0,51.0,30.01,SW,236,0.0,-999.0,90,-99.99,,,-99.99,,2013-04-06 06:02:00,
2013-04-05 23:11:00,54.0,51.0,30.01,SW,236,0.0,-999.0,90,-99.99,,,-99.99,,2013-04-06 06:11:00,
2013-04-05 23:22:00,54.0,51.0,30.01,SW,236,0.0,-999.0,90,-99.99,,,-99.99,,2013-04-06 06:22:00,
2013-04-05 23:32:00,53.0,50.0,30.01,SW,234,0.0,-999.0,90,-99.99,,,-99.99,,2013-04-06 06:32:00,
2013-04-05 23:42:00,53.0,50.0,30.01,SW,234,0.0,-999.0,90,-99.99,,,-99.99,,2013-04-06 06:42:00,
2013-04-05 23:52:00,53.0,50.0,30.01,SW,234,0.0,-999.0,91,-99.99,,,-99.99,,2013-04-06 06:52:00,